Time,TemperatureF,DewpointF,PressureIn,WindDirection,WindDirectionDegrees,WindSpeedMPH,WindSpeedGustMPH,Humidity,HourlyPrecipIn,Conditions,Clouds,dailyrainin,SoftwareType,DateUTC
2013-01-29 00:01:00,65.0,64.0,30.12,SSE,151,1.0,4.0,98,0.00,,,0.01,,2013-01-29 06:01:00,
2013-01-29 00:11:00,65.0,64.0,30.12,SSE,151,1.0,4.0,98,0.00,,,0.01,,2013-01-29 06:11:00,
2013-01-29 00:21:00,65.0,64.0,30.12,SSE,151,1.0,4.0,98,0.00,,,0.01,,2013-01-29 06:21:00,
2013-01-29 00:32:00,65.0,64.0,30.12,SSE,160,1.0,5.0,98,0.00,,,0.01,,2013-01-29 06:32:00,
2013-01-29 00:42:00,65.0,64.0,30.12,SSE,160,1.0,5.0,98,0.00,,,0.01,,2013-01-29 06:42:00,
2013-01-29 00:52:00,65.0,64.0,30.12,SSE,158,1.0,5.0,98,0.00,,,0.01,,2013-01-29 06:52:00,
2013-01-29 01:01:00,65.0,64.0,30.12,SE,127,0.0,4.0,97,0.00,,,0.01,,2013-01-29 07:01:00,
2013-01-29 01:11:00,65.0,64.0,30.12,SE,127,0.0,4.0,97,0.00,,,0.01,,2013-01-29 07:11:00,
2013-01-29 01:21:00,65.0,64.0,30.11,ESE,121,1.0,3.0,97,0.00,,,0.01,,2013-01-29 07:21:00,
2013-01-29 01:32:00,65.0,64.0,30.11,ESE,121,1.0,3.0,97,0.00,,,0.01,,2013-01-29 07:32:00,
2013-01-29 01:42:00,65.0,64.0,30.11,ESE,121,1.0,3.0,97,0.00,,,0.01,,2013-01-29 07:42:00,
2013-01-29 01:52:00,65.0,64.0,30.11,ESE,117,0.0,1.0,98,0.00,,,0.01,,2013-01-29 07:52:00,
2013-01-29 02:02:00,65.0,65.0,30.10,ESE,102,0.0,1.0,99,0.00,,,0.01,,2013-01-29 08:02:00,
2013-01-29 02:11:00,65.0,65.0,30.10,ESE,102,0.0,1.0,99,0.00,,,0.01,,2013-01-29 08:11:00,
2013-01-29 02:21:00,65.0,65.0,30.09,ESE,117,0.0,1.0,99,0.00,,,0.01,,2013-01-29 08:21:00,
2013-01-29 02:31:00,65.0,65.0,30.09,East,94,1.0,2.0,99,0.00,,,0.01,,2013-01-29 08:31:00,
2013-01-29 02:41:00,65.0,65.0,30.09,East,94,1.0,2.0,99,0.00,,,0.01,,2013-01-29 08:41:00,
2013-01-29 02:52:00,65.0,65.0,30.08,East,94,2.0,3.0,99,0.00,,,0.01,,2013-01-29 08:52:00,
2013-01-29 03:01:00,64.0,64.0,30.07,ESE,117,2.0,4.0,99,0.00,,,0.01,,2013-01-29 09:01:00,
2013-01-29 03:11:00,64.0,64.0,30.07,ESE,117,2.0,4.0,99,0.00,,,0.01,,2013-01-29 09:11:00,
2013-01-29 03:21:00,64.0,64.0,30.07,ESE,117,2.0,4.0,99,0.00,,,0.01,,2013-01-29 09:21:00,
2013-01-29 03:31:00,65.0,65.0,30.07,SE,124,2.0,3.0,99,0.00,,,0.01,,2013-01-29 09:31:00,
2013-01-29 03:42:00,65.0,65.0,30.07,SE,124,2.0,3.0,99,0.00,,,0.01,,2013-01-29 09:42:00,
2013-01-29 03:51:00,65.0,65.0,30.06,ESE,115,2.0,5.0,99,0.00,,,0.01,,2013-01-29 09:51:00,
2013-01-29 04:01:00,65.0,65.0,30.06,ESE,110,1.0,4.0,99,0.00,,,0.01,,2013-01-29 10:01:00,
2013-01-29 04:11:00,65.0,65.0,30.06,ESE,110,1.0,4.0,99,0.00,,,0.01,,2013-01-29 10:11:00,
2013-01-29 04:21:00,65.0,65.0,30.06,ESE,118,0.0,2.0,99,0.00,,,0.01,,2013-01-29 10:21:00,
2013-01-29 04:32:00,65.0,65.0,30.06,ESE,112,0.0,1.0,99,0.00,,,0.01,,2013-01-29 10:32:00,
2013-01-29 04:41:00,65.0,65.0,30.06,ESE,112,0.0,1.0,99,0.00,,,0.01,,2013-01-29 10:41:00,
2013-01-29 04:51:00,65.0,65.0,30.05,ESE,112,0.0,2.0,99,0.00,,,0.01,,2013-01-29 10:51:00,
2013-01-29 05:02:00,65.0,65.0,30.05,ESE,120,1.0,2.0,99,0.00,,,0.01,,2013-01-29 11:02:00,
2013-01-29 05:11:00,65.0,65.0,30.05,ESE,120,1.0,2.0,99,0.00,,,0.01,,2013-01-29 11:11:00,
2013-01-29 05:21:00,65.0,65.0,30.04,SE,129,1.0,3.0,99,0.00,,,0.01,,2013-01-29 11:21:00,
2013-01-29 05:32:00,65.0,65.0,30.04,ESE,121,0.0,3.0,99,0.00,,,0.01,,2013-01-29 11:32:00,
2013-01-29 05:42:00,65.0,65.0,30.04,ESE,121,0.0,3.0,99,0.00,,,0.01,,2013-01-29 11:42:00,
2013-01-29 05:52:00,65.0,65.0,30.04,SE,139,1.0,2.0,99,0.00,,,0.01,,2013-01-29 11:52:00,
2013-01-29 06:02:00,65.0,65.0,30.03,ESE,113,0.0,2.0,99,0.00,,,0.01,,2013-01-29 12:02:00,
2013-01-29 06:12:00,65.0,65.0,30.03,ESE,113,0.0,2.0,99,0.00,,,0.01,,2013-01-29 12:12:00,
2013-01-29 06:22:00,65.0,65.0,30.03,East,96,1.0,3.0,99,0.00,,,0.01,,2013-01-29 12:22:00,
2013-01-29 06:32:00,65.0,65.0,30.03,ESE,119,0.0,3.0,99,0.00,,,0.01,,2013-01-29 12:32:00,
2013-01-29 06:43:00,65.0,65.0,30.03,ESE,119,0.0,3.0,99,0.00,,,0.01,,2013-01-29 12:43:00,
2013-01-29 06:53:00,65.0,65.0,30.04,East,98,1.0,3.0,99,0.00,,,0.01,,2013-01-29 12:53:00,
2013-01-29 07:02:00,65.0,65.0,30.04,ESE,114,1.0,4.0,99,0.00,,,0.01,,2013-01-29 13:02:00,
2013-01-29 07:12:00,65.0,65.0,30.04,ESE,114,1.0,4.0,99,0.00,,,0.01,,2013-01-29 13:12:00,
2013-01-29 07:22:00,65.0,65.0,30.04,ESE,114,1.0,4.0,99,0.00,,,0.01,,2013-01-29 13:22:00,
2013-01-29 07:32:00,65.0,65.0,30.03,ESE,115,2.0,5.0,99,0.00,,,0.01,,2013-01-29 13:32:00,
2013-01-29 07:42:00,65.0,65.0,30.03,ESE,115,2.0,5.0,99,0.00,,,0.01,,2013-01-29 13:42:00,
2013-01-29 07:52:00,65.0,65.0,30.03,SE,127,4.0,6.0,99,0.00,,,0.01,,2013-01-29 13:52:00,
2013-01-29 08:02:00,66.0,65.0,30.03,SSE,159,2.0,6.0,98,0.00,,,0.01,,2013-01-29 14:02:00,
2013-01-29 08:12:00,66.0,65.0,30.03,ESE,116,1.0,3.0,98,0.00,,,0.01,,2013-01-29 14:12:00,
2013-01-29 08:22:00,66.0,65.0,30.03,ESE,116,1.0,3.0,98,0.00,,,0.01,,2013-01-29 14:22:00,
2013-01-29 08:33:00,66.0,65.0,30.03,SSE,152,1.0,4.0,97,0.00,,,0.00,,2013-01-29 14:33:00,
2013-01-29 08:43:00,66.0,65.0,30.03,SSE,152,1.0,4.0,97,0.00,,,0.00,,2013-01-29 14:43:00,
2013-01-29 08:52:00,67.0,66.0,30.03,SE,141,1.0,7.0,97,0.00,,,0.00,,2013-01-29 14:52:00,
2013-01-29 09:02:00,67.0,66.0,30.03,ESE,118,2.0,5.0,97,0.00,,,0.00,,2013-01-29 15:02:00,
2013-01-29 09:12:00,67.0,66.0,30.03,ESE,118,2.0,5.0,97,0.00,,,0.00,,2013-01-29 15:12:00,
2013-01-29 09:22:00,68.0,67.0,30.03,SSW,201,2.0,5.0,96,0.00,,,0.00,,2013-01-29 15:22:00,
2013-01-29 09:33:00,68.0,67.0,30.03,ESE,119,1.0,4.0,95,0.00,,,0.00,,2013-01-29 15:33:00,
2013-01-29 09:43:00,68.0,67.0,30.03,ESE,119,1.0,4.0,95,0.00,,,0.00,,2013-01-29 15:43:00,
2013-01-29 09:52:00,68.0,66.0,30.02,SSE,167,2.0,5.0,94,0.00,,,0.00,,2013-01-29 15:52:00,
2013-01-29 10:02:00,70.0,68.0,30.02,SSE,156,2.0,7.0,92,0.00,,,0.00,,2013-01-29 16:02:00,
2013-01-29 10:12:00,70.0,68.0,30.02,SSE,156,2.0,7.0,92,0.00,,,0.00,,2013-01-29 16:12:00,
2013-01-29 10:22:00,71.0,68.0,30.01,SSW,205,2.0,7.0,89,0.00,,,0.00,,2013-01-29 16:22:00,
2013-01-29 10:32:00,71.0,68.0,30.02,SSW,201,2.0,6.0,90,0.00,,,0.00,,2013-01-29 16:32:00,
2013-01-29 10:43:00,71.0,68.0,30.02,SSW,201,2.0,6.0,90,0.00,,,0.00,,2013-01-29 16:43:00,
2013-01-29 10:53:00,71.0,67.0,30.01,South,174,1.0,6.0,88,0.00,,,0.00,,2013-01-29 16:53:00,
2013-01-29 11:03:00,73.0,69.0,30.01,SE,139,2.0,5.0,87,0.00,,,0.00,,2013-01-29 17:03:00,
2013-01-29 11:12:00,73.0,69.0,30.01,SE,139,2.0,5.0,87,0.00,,,0.00,,2013-01-29 17:12:00,
2013-01-29 11:22:00,73.0,69.0,30.01,SE,139,2.0,5.0,87,0.00,,,0.00,,2013-01-29 17:22:00,
2013-01-29 11:32:00,74.0,69.0,30.01,SSE,148,1.0,9.0,84,0.00,,,0.00,,2013-01-29 17:32:00,
2013-01-29 11:42:00,74.0,69.0,30.01,SSE,148,1.0,9.0,84,0.00,,,0.00,,2013-01-29 17:42:00,
2013-01-29 11:52:00,75.0,69.0,30.00,South,169,2.0,7.0,81,0.00,,,0.00,,2013-01-29 17:52:00,
2013-01-29 12:04:00,76.0,68.0,29.99,ESE,108,2.0,11.0,77,0.00,,,0.00,,2013-01-29 18:04:00,
2013-01-29 12:12:00,76.0,68.0,29.99,ESE,108,2.0,11.0,77,0.00,,,0.00,,2013-01-29 18:12:00,
2013-01-29 12:22:00,76.0,68.0,29.98,SE,132,3.0,8.0,77,0.00,,,0.00,,2013-01-29 18:22:00,
2013-01-29 12:33:00,78.0,68.0,29.95,SE,140,4.0,14.0,71,0.00,,,0.00,,2013-01-29 18:33:00,
2013-01-29 12:42:00,78.0,68.0,29.95,SE,140,4.0,14.0,71,0.00,,,0.00,,2013-01-29 18:42:00,
2013-01-29 12:52:00,77.0,67.0,29.93,SE,132,5.0,18.0,71,0.00,,,0.00,,2013-01-29 18:52:00,
2013-01-29 13:02:00,78.0,67.0,29.92,SE,144,6.0,13.0,70,0.00,,,0.00,,2013-01-29 19:02:00,
2013-01-29 13:12:00,78.0,67.0,29.92,SE,144,6.0,13.0,70,0.00,,,0.00,,2013-01-29 19:12:00,
2013-01-29 13:22:00,79.0,68.0,29.90,SSE,154,4.0,11.0,69,0.00,,,0.00,,2013-01-29 19:22:00,
2013-01-29 13:32:00,78.0,67.0,29.90,SSE,159,4.0,9.0,70,0.00,,,0.00,,2013-01-29 19:32:00,
2013-01-29 13:42:00,78.0,67.0,29.90,SSE,159,4.0,9.0,70,0.00,,,0.00,,2013-01-29 19:42:00,
2013-01-29 13:52:00,78.0,67.0,29.89,South,170,6.0,12.0,69,0.00,,,0.00,,2013-01-29 19:52:00,
2013-01-29 14:02:00,78.0,67.0,29.90,SE,146,3.0,11.0,69,0.00,,,0.00,,2013-01-29 20:02:00,
2013-01-29 14:12:00,78.0,67.0,29.90,SE,146,3.0,11.0,69,0.00,,,0.00,,2013-01-29 20:12:00,
2013-01-29 14:22:00,78.0,68.0,29.89,SW,233,2.0,6.0,71,0.00,,,0.00,,2013-01-29 20:22:00,
2013-01-29 14:33:00,78.0,67.0,29.89,SSE,160,4.0,7.0,70,0.00,,,0.00,,2013-01-29 20:33:00,
2013-01-29 14:42:00,78.0,67.0,29.89,SSE,160,4.0,7.0,70,0.00,,,0.00,,2013-01-29 20:42:00,
2013-01-29 14:53:00,77.0,67.0,29.88,SE,124,4.0,11.0,72,0.00,,,0.00,,2013-01-29 20:53:00,
2013-01-29 15:03:00,77.0,67.0,29.88,SE,124,4.0,11.0,72,0.00,,,0.00,,2013-01-29 21:03:00,
2013-01-29 15:12:00,77.0,67.0,29.88,SE,124,4.0,11.0,72,0.00,,,0.00,,2013-01-29 21:12:00,
2013-01-29 15:22:00,77.0,68.0,29.88,SW,219,3.0,6.0,73,0.00,,,0.00,,2013-01-29 21:22:00,
2013-01-29 15:33:00,77.0,68.0,29.87,South,188,3.0,9.0,73,0.00,,,0.00,,2013-01-29 21:33:00,
2013-01-29 15:42:00,77.0,68.0,29.87,South,188,3.0,9.0,73,0.00,,,0.00,,2013-01-29 21:42:00,
2013-01-29 15:52:00,78.0,68.0,29.85,ESE,120,4.0,9.0,72,0.00,,,0.00,,2013-01-29 21:52:00,
2013-01-29 16:02:00,78.0,69.0,29.84,SE,130,4.0,10.0,73,0.00,,,0.00,,2013-01-29 22:02:00,
2013-01-29 16:12:00,78.0,69.0,29.84,SE,130,4.0,10.0,73,0.00,,,0.00,,2013-01-29 22:12:00,
2013-01-29 16:22:00,77.0,68.0,29.84,South,191,3.0,12.0,75,0.00,,,0.00,,2013-01-29 22:22:00,
2013-01-29 16:33:00,77.0,69.0,29.83,South,191,4.0,7.0,77,0.00,,,0.00,,2013-01-29 22:33:00,
2013-01-29 16:42:00,77.0,69.0,29.83,South,191,4.0,7.0,77,0.00,,,0.00,,2013-01-29 22:42:00,
2013-01-29 16:52:00,76.0,69.0,29.83,South,188,1.0,10.0,79,0.00,,,0.00,,2013-01-29 22:52:00,
2013-01-29 17:02:00,76.0,69.0,29.83,SSE,167,5.0,10.0,80,0.00,,,0.00,,2013-01-29 23:02:00,
2013-01-29 17:12:00,76.0,69.0,29.83,SSE,167,5.0,10.0,80,0.00,,,0.00,,2013-01-29 23:12:00,
2013-01-29 17:22:00,76.0,70.0,29.83,SSE,157,3.0,15.0,81,0.00,,,0.00,,2013-01-29 23:22:00,
2013-01-29 17:33:00,76.0,70.0,29.82,South,181,3.0,12.0,81,0.00,,,0.00,,2013-01-29 23:33:00,
2013-01-29 17:42:00,76.0,70.0,29.82,South,181,3.0,12.0,81,0.00,,,0.00,,2013-01-29 23:42:00,
2013-01-29 17:52:00,75.0,69.0,29.82,SSE,161,3.0,8.0,83,0.00,,,0.00,,2013-01-29 23:52:00,
2013-01-29 18:03:00,74.0,69.0,29.81,SSE,156,3.0,9.0,85,0.00,,,0.00,,2013-01-30 00:03:00,
2013-01-29 18:12:00,74.0,69.0,29.81,SSE,156,3.0,9.0,85,0.00,,,0.00,,2013-01-30 00:12:00,
2013-01-29 18:22:00,74.0,70.0,29.82,SSE,148,4.0,9.0,87,0.00,,,0.00,,2013-01-30 00:22:00,
2013-01-29 18:32:00,74.0,70.0,29.82,SSE,168,3.0,6.0,87,0.00,,,0.00,,2013-01-30 00:32:00,
2013-01-29 18:42:00,74.0,70.0,29.82,SSE,168,3.0,6.0,87,0.00,,,0.00,,2013-01-30 00:42:00,
2013-01-29 18:53:00,74.0,70.0,29.82,SSE,168,3.0,6.0,87,0.00,,,0.00,,2013-01-30 00:53:00,
2013-01-29 19:02:00,74.0,70.0,29.82,SSE,168,3.0,6.0,87,0.00,,,0.00,,2013-01-30 01:02:00,
2013-01-29 19:12:00,74.0,70.0,29.82,SSE,168,3.0,6.0,87,0.00,,,0.00,,2013-01-30 01:12:00,
2013-01-29 19:22:00,73.0,70.0,29.81,SSE,166,2.0,12.0,89,0.00,,,0.00,,2013-01-30 01:22:00,
2013-01-29 19:32:00,73.0,69.0,29.82,SE,127,3.0,6.0,88,0.00,,,0.00,,2013-01-30 01:32:00,
2013-01-29 19:42:00,73.0,69.0,29.82,SE,127,3.0,6.0,88,0.00,,,0.00,,2013-01-30 01:42:00,
2013-01-29 19:52:00,73.0,69.0,29.81,SE,127,3.0,8.0,88,0.00,,,0.00,,2013-01-30 01:52:00,
2013-01-29 20:02:00,73.0,69.0,29.81,SSE,148,3.0,9.0,87,0.00,,,0.00,,2013-01-30 02:02:00,
2013-01-29 20:12:00,73.0,69.0,29.81,SSE,148,3.0,9.0,87,0.00,,,0.00,,2013-01-30 02:12:00,
2013-01-29 20:22:00,73.0,69.0,29.80,SE,145,4.0,7.0,87,0.00,,,0.00,,2013-01-30 02:22:00,
2013-01-29 20:33:00,73.0,69.0,29.80,SSE,163,4.0,7.0,87,0.00,,,0.00,,2013-01-30 02:33:00,
2013-01-29 20:42:00,73.0,69.0,29.80,SSE,163,4.0,7.0,87,0.00,,,0.00,,2013-01-30 02:42:00,
2013-01-29 20:52:00,73.0,69.0,29.79,SSW,198,3.0,12.0,87,0.00,,,0.00,,2013-01-30 02:52:00,
2013-01-29 21:03:00,73.0,69.0,29.79,SE,139,4.0,9.0,88,0.00,,,0.00,,2013-01-30 03:03:00,
2013-01-29 21:11:00,73.0,69.0,29.79,SE,139,4.0,9.0,88,0.00,,,0.00,,2013-01-30 03:11:00,
2013-01-29 21:22:00,73.0,69.0,29.78,SSE,162,5.0,10.0,87,0.00,,,0.00,,2013-01-30 03:22:00,
2013-01-29 21:32:00,72.0,68.0,29.77,SE,136,4.0,12.0,88,0.00,,,0.00,,2013-01-30 03:32:00,
2013-01-29 21:42:00,72.0,68.0,29.77,SE,136,4.0,12.0,88,0.00,,,0.00,,2013-01-30 03:42:00,
2013-01-29 21:52:00,72.0,68.0,29.77,SSE,155,2.0,12.0,87,0.00,,,0.00,,2013-01-30 03:52:00,
2013-01-29 22:02:00,73.0,69.0,29.78,SW,231,2.0,12.0,87,0.00,,,0.00,,2013-01-30 04:02:00,
2013-01-29 22:11:00,73.0,69.0,29.78,SW,231,2.0,12.0,87,0.00,,,0.00,,2013-01-30 04:11:00,
2013-01-29 22:22:00,73.0,69.0,29.78,SE,139,1.0,7.0,87,0.00,,,0.00,,2013-01-30 04:22:00,
2013-01-29 22:32:00,73.0,69.0,29.78,South,170,4.0,9.0,86,0.00,,,0.00,,2013-01-30 04:32:00,
2013-01-29 22:41:00,73.0,69.0,29.78,South,170,4.0,9.0,86,0.00,,,0.00,,2013-01-30 04:41:00,
2013-01-29 22:52:00,73.0,68.0,29.78,SSE,149,4.0,11.0,85,0.00,,,0.00,,2013-01-30 04:52:00,
2013-01-29 23:03:00,73.0,68.0,29.78,SSW,212,5.0,11.0,85,0.00,,,0.00,,2013-01-30 05:03:00,
2013-01-29 23:12:00,73.0,68.0,29.78,SSW,212,5.0,11.0,85,0.00,,,0.00,,2013-01-30 05:12:00,
2013-01-29 23:22:00,73.0,68.0,29.78,SSW,212,5.0,11.0,85,0.00,,,0.00,,2013-01-30 05:22:00,
2013-01-29 23:32:00,73.0,68.0,29.77,ESE,122,3.0,16.0,85,0.00,,,0.00,,2013-01-30 05:32:00,
2013-01-29 23:43:00,73.0,68.0,29.77,ESE,122,3.0,16.0,85,0.00,,,0.00,,2013-01-30 05:43:00,
2013-01-29 23:52:00,73.0,69.0,29.77,South,173,3.0,13.0,86,0.00,,,0.00,,2013-01-30 05:52:00,